DW3738 Weather Reports


time (UTC)temp
C
wind
direction
speed
KPH
gust
KPH
rain 1hr
cm
rain 24hr
cm
rain mn
cm
humidity
%
barometer
mb
20260505031543 17 170 0.0 0.0 0.00 0.00 0.00 51 1015.3
20260505030033 17 170 0.0 0.0 0.00 0.00 0.00 50 1015.3
20260505024539 18 170 0.0 0.0 0.00 0.00 0.00 47 1015.2
20260505023034 18 170 0.0 0.0 0.00 0.00 0.00 45 1015.1
20260505021532 18 188 0.0 0.0 0.00 0.00 0.00 44 1015.0
20260505020034 18 210 1.6 0.0 0.00 0.00 0.00 44 1014.9
20260505014536 18 148 0.0 0.0 0.00 0.00 0.00 45 1014.7
20260505013031 18 218 0.0 0.0 0.00 0.00 0.00 45 1014.5
20260505011534 20 218 0.0 0.0 0.00 0.00 0.00 43 1014.4
20260505010030 21 218 0.0 0.0 0.00 0.00 0.00 38 1014.2
20260505004543 21 152 0.0 0.0 0.00 0.00 0.00 36 1014.0
20260505003031 22 165 1.6 0.0 0.00 0.00 0.00 36 1014.0
20260505001528 22 165 1.6 0.0 0.00 0.00 0.00 35 1013.9
20260505000041 23 173 4.8 0.0 0.00 0.00 0.00 35 1013.9
20260504234528 23 196 8.0 0.0 0.00 0.00 0.00 34 1013.6
20260504233027 24 200 6.4 0.0 0.00 0.00 0.00 33 1013.4
20260504231530 25 197 4.8 0.0 0.00 0.00 0.00 29 1013.2
20260504230026 25 165 8.0 0.0 0.00 0.00 0.00 30 1013.1
20260504224525 25 171 8.0 0.0 0.00 0.00 0.00 30 1013.3
20260504223025 25 194 6.4 0.0 0.00 0.00 0.00 29 1013.3
20260504221523 26 188 4.8 0.0 0.00 0.00 0.00 28 1013.3
20260504220023 26 199 6.4 0.0 0.00 0.00 0.00 27 1013.4
20260504214524 26 169 6.4 0.0 0.00 0.00 0.00 27 1013.3
20260504213022 26 159 6.4 0.0 0.00 0.00 0.00 25 1013.3
20260504211520 26 211 8.0 0.0 0.00 0.00 0.00 26 1013.4
20260504210023 26 138 6.4 0.0 0.00 0.00 0.00 28 1013.5
20260504204517 26 201 6.4 0.0 0.00 0.00 0.00 27 1013.6
20260504203016 26 193 6.4 0.0 0.00 0.00 0.00 27 1013.9
20260504201515 26 221 6.4 0.0 0.00 0.00 0.00 27 1014.1
20260504200014 26 265 4.8 0.0 0.00 0.00 0.00 27 1014.1
20260504194511 25 216 6.4 0.0 0.00 0.00 0.00 29 1014.2
20260504193012 26 128 3.2 0.0 0.00 0.00 0.00 27 1014.4
20260504191508 25 112 4.8 0.0 0.00 0.00 0.00 26 1014.6
20260504190006 25 223 6.4 0.0 0.00 0.00 0.00 26 1014.9
20260504184503 24 205 8.0 0.0 0.00 0.00 0.00 31 1015.0
20260504183001 25 207 4.8 0.0 0.00 0.00 0.00 29 1015.2
20260504181602 25 143 4.8 0.0 0.00 0.00 0.00 30 1015.4
20260504180114 25 355 3.2 0.0 0.00 0.00 0.00 29 1015.6
20260504174555 24 229 3.2 0.0 0.00 0.00 0.00 32 1015.7
20260504173052 23 258 3.2 0.0 0.00 0.00 0.00 32 1015.8
20260504171550 23 214 4.8 0.0 0.00 0.00 0.00 33 1015.8
20260504081512 6 153 0.0 0.0 0.00 0.00 0.00 95 1016.8
20260504044552 8 153 0.0 0.0 0.00 0.00 0.00 89 1017.4
20260504043051 8 153 0.0 0.0 0.00 0.00 0.00 88 1017.5
20260504041545 8 153 0.0 0.0 0.00 0.00 0.00 87 1017.6
20260504040048 9 153 0.0 0.0 0.00 0.00 0.00 85 1017.6
20260504034543 9 153 0.0 0.0 0.00 0.00 0.00 84 1017.6
20260504033041 10 153 0.0 0.0 0.00 0.00 0.00 82 1017.7